Regional Weather Roundup
Issued by NWS

Home | Current Version | Previous Version | Graphics & Text | Print | Product List | Glossary On
Versions: 1 2 3 4 5 6 7 8 9 10 11 12 13 14 15 16 17 18 19 20 21 22 23 24 25 26 27 28 29 30 31 32 33 34 35 36 37 38 39 40 41 42 43 44 45 46 47 48 49 50
000
ASUS43 KOAX 200010
RWRNE

WEATHER ROUNDUP FOR NEBRASKA
NATIONAL WEATHER SERVICE OMAHA NE
600 PM CST FRI JAN 19 2018

NOTES: SATELLITE DATA IS BEING USED TO AUGMENT CLOUD COVER ABOVE
       12000 FEET.
       "FAIR" INDICATES FEW OR NO CLOUDS BELOW 12,000 FEET WITH NO
       SIGNIFICANT WEATHER AND/OR OBSTRUCTIONS TO VISIBILITY.


NEZ001>004-019>022-054>056-200100-
NEBRASKA PANHANDLE

CITY           SKY/WX    TMP DP  RH WIND       PRES   REMARKS
SCOTTSBLUFF    CLOUDY    37  31  78 SE3       29.68R
6HR MIN TEMP:  36; 6HR MAX TEMP:  44;

ALLIANCE       CLOUDY    37  32  82 N5        29.67S WCI  33
6HR MIN TEMP:  37; 6HR MAX TEMP:  44;

CHADRON        MOCLDY    38  30  73 NE8       29.71R WCI  32
6HR MIN TEMP:  38; 6HR MAX TEMP:  54;

GORDON         FAIR      36  31  82 CALM      29.70R
6HR MIN TEMP:  36; 6HR MAX TEMP:  53;

KIMBALL        CLOUDY    45  25  45 W6        29.71R
SIDNEY         CLOUDY    40  25  55 SW10      29.69S WCI  33
6HR MIN TEMP:  40; 6HR MAX TEMP:  52;

$$

NEZ057>060-069>072-079>082-200100-
SOUTHWEST NEBRASKA

CITY           SKY/WX    TMP DP  RH WIND       PRES   REMARKS
NORTH PLATTE   CLOUDY    40  31  70 CALM      29.70R
6HR MIN TEMP:  39; 6HR MAX TEMP:  52;

IMPERIAL       CLOUDY    40  27  59 CALM      29.68S
6HR MIN TEMP:  40; 6HR MAX TEMP:  63;

LEXINGTON      CLOUDY    38  32  78 N3        29.69R
MCCOOK         CLOUDY    53  26  35 W3        29.68R
6HR MIN TEMP:  44; 6HR MAX TEMP:  59;

OGALLALA       CLOUDY    42  32  69 CALM      29.68S
$$

NEZ005>010-023>029-035>040-094-200100-
NORTH CENTRAL NEBRASKA

CITY           SKY/WX    TMP DP  RH WIND       PRES   REMARKS
VALENTINE      CLOUDY    41  32  70 NW6       29.71R
6HR MIN TEMP:  41; 6HR MAX TEMP:  59;

AINSWORTH      CLOUDY    38  33  82 CALM      29.71R
BROKEN BOW     CLOUDY    42  32  67 N8        29.70R
6HR MIN TEMP:  42; 6HR MAX TEMP:  58;

O`NEILL        CLOUDY    39  34  82 NW6       29.70R WCI  34
ORD            CLOUDY    45  32  60 N7        29.69R
6HR MIN TEMP:  41; 6HR MAX TEMP:  64;

THEDFORD       CLOUDY    42  33  70 N3        29.72R
$$

NEZ041-046>049-061>064-073>077-083>087-200100-
SOUTH CENTRAL NEBRASKA

CITY           SKY/WX    TMP DP  RH WIND       PRES   REMARKS
GRAND ISLAND   CLOUDY    40  31  70 SW3       29.69R
6HR MIN TEMP:  38; 6HR MAX TEMP:  51;

AURORA         CLOUDY    41  25  52 SW5       29.69R
HASTINGS       CLOUDY    46  22  38 S7        29.67F
6HR MIN TEMP:  45; 6HR MAX TEMP:  54;

HEBRON         CLOUDY    38  29  69 CALM      29.71R
HOLDREGE       CLOUDY    42  28  59 CALM      29.68R
KEARNEY        CLOUDY    40  33  76 CALM      29.69R
YORK           CLOUDY    41  28  60 SW6       29.70R
$$

NEZ011>018-030>034-042>045-200100-
NORTHEAST NEBRASKA

CITY           SKY/WX    TMP DP  RH WIND       PRES   REMARKS
NORFOLK        CLOUDY    39  33  79 CALM      29.65R
6HR MIN TEMP:  39; 6HR MAX TEMP:  55;

ALBION         CLOUDY    41  33  73 CALM      29.68R
BLAIR          CLOUDY    41  30  65 S10       29.68R
COLUMBUS       CLOUDY    45  30  55 SW3       29.68R
FREMONT        CLOUDY    44  28  54 S5        29.69R
TEKAMAH        CLOUDY    39  28  64 S13       29.67R WCI  31
6HR MIN TEMP:  39; 6HR MAX TEMP:  54;

WAYNE          CLOUDY    43  32  67 NW6       29.67R
$$

NEZ050>053-065>068-078-088>093-200100-
SOUTHEAST NEBRASKA

CITY           SKY/WX    TMP DP  RH WIND       PRES   REMARKS
LINCOLN        CLOUDY    40  27  59 S8        29.71R WCI  34
6HR MIN TEMP:  40; 6HR MAX TEMP:  52;

OMAHA EPPLEY   CLOUDY    42  29  59 S12       29.69R
6HR MIN TEMP:  41; 6HR MAX TEMP:  46;

BEATRICE       CLOUDY    39  31  72 S6        29.72R
FALLS CITY       N/A     43  28  55 S9        29.73R
6HR MIN TEMP:  42; 6HR MAX TEMP:  49;

NEBRASKA CITY  CLOUDY    37  32  81 S8        29.71F WCI  31
PLATTSMOUTH    CLOUDY    41  30  65 SW5       29.71R
$$

NEZ044-045-051>053-067-200100-
OMAHA AREA

CITY           SKY/WX    TMP DP  RH WIND       PRES   REMARKS
OMAHA EPPLEY   CLOUDY    42  29  59 S12       29.69R
6HR MIN TEMP:  41; 6HR MAX TEMP:  46;

BLAIR          CLOUDY    41  30  65 S10       29.68R
FREMONT        CLOUDY    44  28  54 S5        29.69R
MILLARD        CLOUDY    43  30  61 S5        29.70R
OFFUTT AFB     CLOUDY    39  28  66 CALM      29.71R
PLATTSMOUTH    CLOUDY    41  30  65 SW5       29.71R
WAHOO          FAIR      40  28  61 SW7       29.69R
$$




USA.gov is the U.S. government's official web portal to all federal, state and local government web resources and services.